MUNICIPIO DE TELEMACO BORBA
| LOCALIZA VEÍCULOS ESPECIAIS S.A | R$ 5.850.000,00 |
| ZERO RESIDUOS LTDA | R$ 4.809.600,00 |
| CEZ ENGENHARIA LTDA | R$ 4.241.454,35 |
| DRIAL ORGANIZAÇÃO DE EVENTOS ESPORTIVOS LTDA | R$ 2.942.119,00 |
| GESTPAR COMERCIO DE MAQUINAS COPIADORAS E IMPRESSORAS LTDA EPP | R$ 2.754.522,00 |
| RAMOS & FORTE LTDA | R$ 2.534.400,00 |
| RS TRENTO LTDA | R$ 2.336.874,12 |
| YAMADIESEL COMERCIO DE MAQUINAS - EIRELI | R$ 2.190.000,00 |
HHI — referência pública (DOJ/EUA): competitivo (< 1.500) · moderadamente concentrado (1.500–2.500) · concentrado (> 2.500). Indicador de concentração, não juízo sobre a gestão.
| Ata / objeto | UF | Vigência |
|---|---|---|
Registro de preços para aquisição de conjunto de poste e luminária ornamental para praças. 76170240000104-1-000221/2025-000001 | PR | vigente até 13/08/2027 |
Registro de preços para manutenção corretiva e preventiva de equipamentos hospitalares, odontológicos e de reabilitação. 76170240000104-1-000146/2025-000002 | PR | vigente até 11/08/2027 |
Registro de preços para serviço de lavagem veicular sem dedicação exclusiva. 76170240000104-1-000173/2025-000001 | PR | vigente até 04/08/2027 |
Registro de preços para aquisição de Grama e Serviço de Plantio. 76170240000104-1-000178/2025-000001 | PR | vigente até 31/07/2027 |
Registro de preços para aquisição de Grama e Serviço de Plantio. 76170240000104-1-000178/2025-000002 | PR | vigente até 31/07/2027 |
Registro de preços para aquisição de materiais e equipamentos esportivos. 76170240000104-1-000064/2025-000014 | PR | vigente até 21/07/2027 |
Registro de preços para aquisição de gêneros alimentícios e leite. 76170240000104-1-000095/2025-000002 | PR | vigente até 21/07/2027 |
Registro de preços para aquisição de materiais e equipamentos esportivos. 76170240000104-1-000064/2025-000004 | PR | vigente até 21/07/2027 |
Registro de preços para aquisição de gêneros alimentícios e leite. 76170240000104-1-000095/2025-000003 | PR | vigente até 21/07/2027 |
Registro de preços para aquisição de materiais e equipamentos esportivos. 76170240000104-1-000064/2025-000011 | PR | vigente até 21/07/2027 |
Registro de preços para aquisição de materiais e equipamentos esportivos. 76170240000104-1-000064/2025-000003 | PR | vigente até 21/07/2027 |
Registro de preços para aquisição de materiais e equipamentos esportivos. 76170240000104-1-000064/2025-000010 | PR | vigente até 21/07/2027 |
Registro de preços para aquisição de materiais e equipamentos esportivos. 76170240000104-1-000064/2025-000008 | PR | vigente até 21/07/2027 |
Registro de preços para aquisição de gêneros alimentícios e leite. 76170240000104-1-000095/2025-000004 | PR | vigente até 21/07/2027 |
Registro de preços para aquisição de gêneros alimentícios e leite. 76170240000104-1-000095/2025-000001 | PR | vigente até 21/07/2027 |
Registro de preços para aquisição de materiais e equipamentos esportivos. 76170240000104-1-000064/2025-000001 | PR | vigente até 21/07/2027 |
Registro de preços para aquisição de materiais e equipamentos esportivos. 76170240000104-1-000064/2025-000005 | PR | vigente até 21/07/2027 |
Registro de preços para serviço de segurança eventual não armada presencial. 76170240000104-1-000163/2025-000001 | PR | vigente até 14/07/2027 |
Registro de preços para fornecimento de concreto usinado. 76170240000104-1-000162/2025-000001 | PR | vigente até 09/07/2027 |
Registro de preços para aquisição de refletores de LED e luminárias para postes. 76170240000104-1-000096/2025-000002 | PR | vigente até 02/06/2027 |
Registro de preços para aquisição e instalação de bancadas e divisórias em granito e cuba para pia. 76170240000104-1-000106/2025-000001 | PR | vigente até 01/06/2027 |
Registro de preços para aquisição de hortifrutigranjeiros. 76170240000104-1-000084/2025-000001 | PR | vigente até 19/05/2027 |
Registro de preços para aquisição de hortifrutigranjeiros. 76170240000104-1-000084/2025-000004 | PR | vigente até 19/05/2027 |
Registro de preços para aquisição de hortifrutigranjeiros. 76170240000104-1-000084/2025-000002 | PR | vigente até 19/05/2027 |
Registro de preços para aquisição de hortifrutigranjeiros. 76170240000104-1-000084/2025-000003 | PR | vigente até 19/05/2027 |
Registro de preços para jazigo pré fabricado em concreto. 76170240000104-1-000110/2025-000001 | PR | vigente até 15/05/2027 |
Registro de preços para serviço de lavanderia. 76170240000104-1-000075/2025-000001 | PR | vigente até 14/05/2027 |
Registro de preços para aquisição de academia ao ar livre. 76170240000104-1-000385/2024-000001 | PR | vigente até 08/05/2027 |
Registro de preços para aquisição de academia ao ar livre. 76170240000104-1-000385/2024-000002 | PR | vigente até 08/05/2027 |
Registro de preços para aquisição de uniformes. 76170240000104-1-000353/2024-000010 | PR | vigente até 06/05/2027 |
Registro de preços para aquisição de uniformes. 76170240000104-1-000353/2024-000004 | PR | vigente até 06/05/2027 |
Registro de preços para aquisição de uniformes. 76170240000104-1-000353/2024-000012 | PR | vigente até 06/05/2027 |
Registro de preços para aquisição de uniformes. 76170240000104-1-000353/2024-000003 | PR | vigente até 06/05/2027 |
Registro de preços para aquisição de uniformes. 76170240000104-1-000353/2024-000002 | PR | vigente até 06/05/2027 |
Registro de preços para aquisição de uniformes. 76170240000104-1-000353/2024-000001 | PR | vigente até 06/05/2027 |
Registro de preços para aquisição de material de construção. 76170240000104-1-000057/2025-000002 | PR | vigente até 15/04/2027 |
Registro de preços para aquisição de material de construção. 76170240000104-1-000057/2025-000001 | PR | vigente até 15/04/2027 |
Registro de preços para aquisição de vidros e esquadrias de vidro temperado (portas e janelas), devidamente instalados. 76170240000104-1-000044/2025-000001 | PR | vigente até 15/04/2027 |
Registro de preços para aquisição de material de construção. 76170240000104-1-000057/2025-000003 | PR | vigente até 15/04/2027 |
Registo de preços para retifica de motores, bombas injetoras e turbinas com fornecimento de peças. 76170240000104-1-000483/2024-000001 | PR | vigente até 11/04/2027 |
Registro de preços para aquisição de meias, tênis, mochilas e estojo para os alunos da rede Municipal de Ensino. 76170240000104-1-000478/2024-000003 | PR | vigente até 23/03/2027 |
Registro de preços para eventual serviço de engenharia para execução e manutenção de redes pluviais urbanas com fornecimento de mão de obra e materiais. 76170240000104-1-000018/2025-000001 | PR | vigente até 10/03/2027 |
Registro de preços para aquisição de material hospitalar. 76170240000104-1-000403/2024-000013 | PR | vigente até 05/03/2027 |
Registro de preços para aquisição de material hospitalar. 76170240000104-1-000403/2024-000012 | PR | vigente até 05/03/2027 |
Registro de preços para aquisição de peças, materiais e acessórios originais e paralelas para os veículos da frota do Município. 76170240000104-1-000476/2024-000001 | PR | vigente até 26/02/2027 |
Registro de preços para manutenção preventiva e corretiva com fornecimento de peças, materiais e acessórios para os veículos da frota do Município. 76170240000104-1-000485/2024-000002 | PR | vigente até 30/01/2027 |
Registro de preços para aquisição de café, chá e complemento alimentar. 76170240000104-1-000419/2024-000004 | PR | vigente até 29/01/2027 |
Registro de preços para aquisição de café, chá e complemento alimentar. 76170240000104-1-000419/2024-000002 | PR | vigente até 29/01/2027 |
Registro de preços para aquisição de café, chá e complemento alimentar. 76170240000104-1-000419/2024-000005 | PR | vigente até 29/01/2027 |
Registro de preços para aquisição de água mineral. 76170240000104-1-000355/2024-000001 | PR | vigente até 26/01/2027 |
Carona/adesão: outro órgão pode comprar por estas atas enquanto vigentes, sem nova licitação.
| Contrato / objeto | Fornecedor | Valor global | Vigência |
|---|---|---|---|
76170240000104-2-000079/2026 | R+SAUDE - GESTÃO E SERVIÇOS MÉDICOS LTDA | R$ 104.177,52 | 18/06/2027 |
76170240000104-2-000080/2026 | SHARK MAQUINAS PARA CONSTRUCAO LTDA (ARAUCARIA) | R$ 300.000,00 | 17/06/2027 |
76170240000104-2-000078/2026 | VIANMAQ EQUIPAMENTOS LTDA | R$ 250.000,00 | 17/06/2027 |
76170240000104-2-000075/2026 | LA BELLE DANCE-ACADEMIA DE DANÇA LTDA | R$ 29.263,00 | 07/06/2027 |
76170240000104-2-000081/2026 | PRIME AMBIENTAL RESIDUOS EIRELI | R$ 2.136.384,00 | 24/11/2026 |
76170240000104-2-000073/2026 | O 2 PLUS CARD INSTITUICAO DE PAGAMENTOS LTDA | R$ 1.771.000,01 | 17/05/2027 |
76170240000104-2-000074/2026 | RADAR PRODUÇÕES ARTÍSTICAS E ENTRETERIMENTO LTDA | R$ 175.500,00 | 07/07/2026 |
76170240000104-2-000072/2026 | PERFUGEL-PERFURAÇOES GEOLOGICAS LTDA EPP | R$ 98.360,00 | 06/11/2026 |
76170240000104-2-000070/2026 | TRIVALE INSTITUIÇÃO DE PAGAMENTO LTDA | R$ 8.800,00 | 22/04/2027 |
76170240000104-2-000077/2026 | V SCHATZMANN ATENCAO MEDICA LTDA | R$ 95.288,76 | 22/04/2027 |
76170240000104-2-000071/2026 | PLSS SOLUÇOES EIRELI - ME | R$ 18.000,00 | 16/04/2027 |
76170240000104-2-000069/2026 | PANIFICADORA MONTE SINAI LTDA - ME | R$ 29.992,00 | 08/04/2027 |
76170240000104-2-000067/2026 | MEDBLANC GESTAO EM SAUDE E IMAGEM LTDA | R$ 351.525,84 | 07/04/2027 |
76170240000104-2-000066/2026 | ENGEPEÇAS EQUIPAMENTOS LTDA | R$ 361.499,00 | 07/07/2026 |
76170240000104-2-000064/2026 | LUANA GOMES LTDA | R$ 274.351,68 | 06/04/2027 |
76170240000104-2-000076/2026 | ASSOCIACAO PARANAENSE DE CULTURA - APC | R$ 33.875,40 | 29/03/2031 |
76170240000104-2-000068/2026 | — | R$ 7.413,12 | 27/09/2026 |
76170240000104-2-000062/2026 | COMERCIAL DE BEBIDAS CENTRO OESTE LTDA | R$ 176.738,80 | 27/03/2027 |
76170240000104-2-000065/2026 | WALMIR LUIZ SIEKLICKI ME | R$ 51.790,00 | 25/03/2027 |
76170240000104-2-000059/2026 | ASSOCIAÇÃO LONDRINENSE DE CIRCO | R$ 30.000,00 | 23/05/2026 |
76170240000104-2-000063/2026 | EDSON FELIX OBRAS E ALVENARIA LTDA | R$ 1.037.000,00 | 23/03/2027 |
76170240000104-2-000060/2026 | ANA PAULA GOMES DA SILVA BRIANESE | R$ 99.600,00 | 19/03/2031 |
76170240000104-2-000061/2026 | 63.254.388 ROSINEIA DOS SANTOS PROCOPIO GOUVEIA | R$ 33.010,20 | 19/03/2031 |
76170240000104-2-000058/2026 | — | R$ 13.475,00 | 18/03/2027 |
76170240000104-2-000057/2026 | ASSOCIAÇÃO DOS PRODUTORES RURAIS DA LOCALIDADE DE PINHEIRO SECO E REGIÃO - APROPS | R$ 512.134,23 | 18/03/2027 |
76170240000104-2-000055/2026 | COOPERATIVA DOS APICULTORES E MELIPONICULTORES CAMINHOS DO TIBAGI | R$ 336.375,70 | 18/03/2027 |
76170240000104-2-000054/2026 | COOPERATIVA DA AGRICULTURA FAMILIAR DE SÃO JERONIMO DA SERRA | R$ 563.953,32 | 18/03/2027 |
76170240000104-2-000053/2026 | — | R$ 321.675,42 | 18/03/2027 |
76170240000104-2-000050/2026 | COOPERATIVA DE PROD COM E AGROINDUSTRIALIZAÇÃO AGROECOLÓGICA UNIÃO FAMILIAR-COPRAUF | R$ 288.584,34 | 18/03/2027 |
76170240000104-2-000052/2026 | COOPERATIVA AGROINDUSTRIAL COOPERCANDI | R$ 338.967,25 | 18/03/2027 |
76170240000104-2-000051/2026 | — | R$ 362.577,01 | 18/03/2027 |
76170240000104-2-000056/2026 | COOPERATIVA DA AGRICULTURA FAMILIAR E ECONOMIA SOLIDARIA DO VALE DO TIBAGI | R$ 563.953,32 | 18/03/2027 |
76170240000104-2-000049/2026 | — | R$ 7.413,12 | 16/09/2026 |
76170240000104-2-000048/2026 | FEDERAÇÃO PARANAENSE DE AUTOMOBILISMO | R$ 40.000,00 | 16/09/2026 |
76170240000104-2-000046/2026 | HIDROSOLLO POÇOS ARTESIANOS | R$ 17.310,00 | 08/06/2026 |
76170240000104-2-000045/2026 | MARCOS ANTONIO PEREIRA DOS SANTOS ME | R$ 13.198,92 | 08/03/2027 |
76170240000104-2-000044/2026 | FUNDACAO DE APOIO AO CAMPUS DE PARANAVAI - FACULDADE ESTADUAL DE EDUCACAO CIENCIAS E LETRAS DE PARANAVAI - FAFIPA | R$ 242.800,00 | 04/03/2028 |
76170240000104-2-000037/2026 | FORMULA COM. DE AUTOMOVEIS LTDA | R$ 120.400,00 | 13/02/2027 |
76170240000104-2-000036/2026 | RKA INFORMATICA LTDA | R$ 842.400,00 | 12/02/2027 |
76170240000104-2-000035/2026 | DOUGLAS VALENTIM JUNIOR LTDA | R$ 167.925,84 | 09/02/2027 |
76170240000104-2-000041/2026 | RPG COMÉRCIO DE MERCADORIAS E SERVIÇOS LTDA | R$ 21.039,41 | 09/08/2026 |
76170240000104-2-000042/2026 | PLENUS DISTRIBUIDORA DE GENEROS ALIMENTÍCIOS LTDA | R$ 36.218,00 | 09/08/2026 |
76170240000104-2-000043/2026 | NOVOSOL SUPRIMENTOS LTDA | R$ 27.626,56 | 09/08/2026 |
76170240000104-2-000031/2026 | KOSTRZEVICZ & ZOCOLOTTO LTDA | R$ 272.325,84 | 09/02/2027 |
76170240000104-2-000034/2026 | I C CHAVES SERVICOS MEDICOS | R$ 92.962,92 | 09/02/2027 |
76170240000104-2-000040/2026 | BRUNA DE OLIVEIRA DE SOUZA LATICINIOS LTDA | R$ 33.389,88 | 09/08/2026 |
76170240000104-2-000022/2026 | ALINE TV BRASIL | R$ 100.000,00 | 06/04/2026 |
76170240000104-2-000023/2026 | NOSSA MISSÃO PRODUÇÕES LTDA | R$ 100.000,00 | 06/04/2026 |
76170240000104-2-000021/2026 | ICP IMOBILIARIA CIDADE DO PAPEL LTDA | R$ 119.289,36 | 03/02/2028 |
76170240000104-2-000026/2026 | L MAZZETTO PASIM MORON SERVICOS MEDICOS LTDA | R$ 162.000,00 | 02/02/2027 |
Fornecedor pessoa física é omitido por proteção de dados (LGPD).
⚖ Este perfil é montado exclusivamente sobre dados públicos — divulgação obrigatória por força do art. 8º da Lei de Acesso à Informação (12.527/2011) e dos arts. 54 e 174 da Lei 14.133/2021 (PNCP) — e do Portal da Transparência (CEIS/CNEP). Indicadores são estatística transparente (metodologia), não juízo de conduta. Contestações pelo formulário — o pedido fica registrado, não depende de e-mail, e respondemos em até 5 dias úteis.